Погода в Аккургане

Узбекистан     40°52′43″N   69°02′54″E
темп.,
°C
ветер,
м/с
пор.,
м/с
влажн.,
%
обл.,
%
осадки,
мм/ч
давл.,
гПа
погр.,
м
3 марта, ср
ср323:00+8с365897 0.0 1024168
02:00+8ссз336297 0.0 102499
05:00+7сз237099 0.0 102474
08:00+6юв237234 0.0 1024115
11:00+11юз345517 0.0 1023673
14:00+13юз23500 0.0 10211118
17:00+14з22460 0.0 10201131
20:00+11сз225899 0.0 102226
4 марта, чт
чт423:00+9ссв016481 0.0 102222
02:00+8в12680 0.0 102122
05:00+7юв11680 0.0 102022
08:00+8юз117227 0.0 102024
11:00+13ю235164 0.0 1018344
14:00+16з6743100 0.0 10161429
17:00+13юз2759100 0.4 1017373
20:00+12юв4963100 0.4 1019206
5 марта, пт
пт523:00+8ссз5986100 1.0 1024524
02:00+6ссз5779100 0.6 1027823
05:00+5сз3482100 2.4 1030470
08:00+4с458045 0.0 1031243
11:00+8с225939 0.0 1030823
14:00+11ссв33380 0.0 10271197
17:00+12ссв33330 0.0 1024996
20:00+8с35550 0.0 1025112
6 марта, сб
сб623:00+7ссв345817 0.0 102266
02:00+7св235176 0.0 101834
05:00+6ссв233988 0.0 101529
08:00+7ссв2240100 0.0 101238
11:00+11зсз3433100 0.0 1011272
14:00+14зсз4534100 0.0 1012751
17:00+11сз5643100 0.0 1012517
20:00+9сз2357100 0.0 1014189
7 марта, вс
вс723:00+8сз3563100 0.1 1015212
02:00+7зсз1176100 0.9 1016193
05:00+7юв2286100 2.2 1017160
08:00+8вюв3480100 0.6 1019596
11:00+8з2275100 0.8 1019537
14:00+10св116699 0.1 1018725
17:00+10всв115799 0.1 1018931
20:00+8ссв126785 0.0 101823